Location: Barcelona
(41.3830°N, 2.1830°E)
Time: 00:19:52
(UTC+02:00)

ISS - Pass Details

Date: 24 May 2019
Orbit: 408 x 418 km, 51.6° (Epoch: 26 May)

Event Time Altitude Azimuth Distance (km) Brightness Sun altitude
Rises 01:03:09 0° 309° (NW) 2,358 0.8 -27.1°
Reaches altitude 10° 01:05:40 10° 328° (NNW) 1,495 -0.1 -27.2°
Maximum altitude 01:08:09 19° 16° (NNE) 1,068 -1.1 -27.3°
Enters shadow 01:08:21 19° 21° (NNE) 1,071 -1.1 -27.3°
